Temperature
20 20 19 19 19 19 21 22 22 22 22 22 22 21 20 20 20 20 19 19 19 19 19 19 19 19 19 19 19 19 19 19 19 19 19 19 19 19 18 18 18 18 18 18 18 18 18 18 18
20 20 19 19 19 20 21 22 22 22 22 22 22 21 20 19 19 20 19 19 19 19 19 19 19 19 19 19 19 19 19 19 19 19 19 19 19 18 18 18 18 18 18 18 18 18 18 18 18
20 20 19 19 20 21 22 22 22 23 22 22 22 21 20 20 20 20 20 19 19 19 19 19 19 19 19 19 19 19 19 19 19 19 19 19 19 18 18 18 18 18 18 18 18 18 18 18 18
20 20 20 20 21 21 22 22 23 23 23 22 21 20 20 20 20 20 20 19 19 19 19 19 19 19 19 19 19 19 19 19 19 19 19 19 19 18 18 18 18 18 18 18 18 18 18 18 18
20 20 20 20 21 22 23 23 23 22 22 21 21 20 19 20 20 20 20 20 19 19 19 19 19 19 19 19 19 19 19 19 19 19 19 19 19 18 18 18 18 18 18 18 18 18 18 18 18
21 20 20 21 22 23 23 23 23 22 22 21 21 19 19 19 20 20 20 20 19 19 19 19 19 19 19 19 19 19 19 19 19 19 19 19 18 18 18 18 18 18 18 18 18 18 18 18 18
21 20 21 22 22 23 24 23 22 22 22 21 21 19 19 19 20 20 20 19 19 19 19 19 19 19 19 19 19 19 19 19 19 19 19 19 19 19 18 18 18 18 18 18 18 18 18 18 18
22 20 21 21 22 23 24 24 23 23 22 22 21 20 19 20 20 20 19 19 19 19 19 19 19 19 19 19 19 19 19 19 19 19 19 19 19 19 18 18 18 18 18 18 18 18 18 18 18
22 20 21 22 23 23 24 23 23 23 22 21 21 21 21 20 20 20 19 19 19 19 19 19 19 19 19 19 19 19 19 19 19 19 18 18 18 18 18 18 18 18 18 18 18 18 18 18 18
22 20 22 23 23 23 24 23 23 22 21 21 21 21 20 20 20 20 20 20 20 19 19 19 19 19 19 19 19 19 19 19 19 19 18 18 18 18 18 19 19 18 18 18 18 18 18 18 18
22 22 23 24 25 24 24 23 23 22 21 21 21 21 20 20 20 20 20 20 20 20 19 19 19 19 19 19 19 19 19 19 19 19 19 19 19 19 19 19 19 18 18 18 18 18 18 18 18
23 23 24 24 25 25 24 24 23 23 23 23 22 22 21 20 20 20 20 20 20 20 19 19 19 19 19 19 19 19 19 19 19 19 19 19 19 19 19 19 19 18 18 18 18 18 18 18 18
23 23 24 25 25 25 24 23 23 23 23 23 22 22 21 21 21 21 20 20 20 20 20 19 19 19 19 19 19 19 19 19 19 19 19 19 19 19 19 19 19 19 19 19 19 19 19 18 18
24 24 24 25 25 25 24 23 23 23 23 22 22 21 21 21 21 21 20 20 20 20 20 20 19 19 19 19 19 19 19 19 19 19 19 19 19 19 19 19 19 19 19 18 19 19 19 19 18
24 24 24 24 25 25 24 23 23 23 23 22 21 21 21 21 21 21 21 21 21 20 20 20 20 19 19 19 19 19 19 19 19 19 19 19 19 19 19 19 19 19 19 19 19 19 18 18 18
24 23 23 24 24 25 24 23 23 23 22 21 21 21 21 21 21 21 21 21 21 20 20 20 20 20 19 19 19 19 19 19 19 19 19 19 19 19 19 19 19 19 19 19 19 19 19 19 19
22 22 23 24 25 24 24 23 22 22 22 21 21 21 21 21 21 21 21 21 21 20 20 20 20 20 20 19 19 19 19 19 19 19 19 19 19 19 19 19 19 19 19 19 19 19 18 18 18
23 23 23 23 24 24 23 22 22 22 22 21 21 21 21 21 22 22 21 21 21 21 20 20 20 20 20 19 19 19 19 19 19 19 19 19 19 19 19 19 19 19 19 19 19 19 18 18 18
23 23 23 24 24 24 23 22 22 22 22 21 21 21 21 22 22 22 21 21 21 20 20 20 20 20 20 19 19 19 19 19 19 19 19 19 19 19 19 19 19 19 19 19 19 19 19 18 18
23 23 23 23 24 24 22 22 22 21 21 22 21 21 21 21 22 22 21 21 21 21 20 20 20 20 20 19 19 19 19 19 19 19 19 19 19 19 19 18 19 19 19 19 19 19 18 18 18
23 23 23 23 24 23 23 22 22 22 22 22 22 21 21 22 22 22 21 21 21 21 20 20 20 20 20 19 19 19 19 19 19 19 19 19 18 19 18 19 18 18 18 18 18 18 18 18 18
23 24 24 24 22 21 23 21 22 21 21 21 21 21 21 21 22 22 22 21 21 21 21 20 20 20 20 19 19 19 19 19 19 19 19 18 18 18 18 18 18 18 18 18 18 18 18 18 18
24 24 24 23 21 21 21 21 21 21 21 21 21 21 21 22 22 22 22 22 21 21 21 21 20 20 20 19 19 19 19 19 19 19 19 18 18 18 18 18 18 18 18 18 18 18 18 18 18
24 23 22 20 20 21 21 21 21 20 21 21 21 21 21 22 22 22 22 22 21 21 21 21 20 20 20 19 19 19 19 19 19 19 19 18 18 18 18 18 18 18 18 18 18 18 18 18 18
23 22 21 21 20 20 20 21 21 22 22 22 21 22 22 22 22 22 22 22 21 21 21 21 20 20 20 19 19 19 19 19 19 19 19 18 18 18 18 18 18 18 18 18 18 18 18 18 18
22 22 21 22 21 20 20 20 21 22 22 22 22 22 22 22 22 22 22 22 22 22 21 21 20 20 20 20 19 19 19 19 19 19 18 18 18 18 18 18 18 18 18 18 18 18 17 17 17
22 21 21 20 20 20 20 20 21 22 21 21 22 22 22 22 22 22 22 22 22 22 21 21 21 20 20 20 19 19 19 19 19 18 18 18 18 18 18 18 17 18 18 17 17 17 17 17 17
22 20 18 19 20 21 21 21 21 22 21 21 21 21 21 22 22 22 22 22 22 21 21 21 21 20 20 20 20 19 19 19 18 18 18 18 18 18 18 17 17 17 17 17 17 17 17 17 17
21 20 18 17 19 20 21 21 21 21 21 21 21 21 22 22 22 22 22 22 22 22 21 21 21 20 20 20 19 19 19 19 18 18 18 18 18 18 17 17 17 17 17 17 17 17 17 17 17
22 20 19 20 20 18 19 20 22 21 21 20 21 21 22 22 22 22 22 22 22 22 21 21 21 20 20 19 19 19 19 19 18 18 18 18 18 18 17 17 17 17 17 17 17 17 17 17 17
Wind_Speed
8 6 2 1 2 3 2 3 1 2 3 3 5 6 6 4 2 3 0 4 5 5 5 7 9 9 9 9 9 10 11 11 12 12 13 13 12 12 12 11 11 10 10 10 10 10 10 10 10
7 4 1 1 3 2 3 2 1 2 4 4 5 6 6 5 3 4 2 3 5 4 4 6 9 9 9 9 9 10 11 12 12 12 12 12 11 11 10 10 10 10 10 10 10 9 9 9 9
7 3 0 2 2 1 1 1 2 3 3 2 4 5 4 3 3 2 3 5 5 4 4 5 9 9 9 9 10 10 11 12 12 12 11 11 11 10 9 9 9 9 10 9 9 9 8 8 8
3 1 1 3 2 2 2 2 3 4 3 5 4 5 4 3 2 4 6 6 5 3 3 5 8 9 10 10 10 10 11 11 11 11 11 10 10 10 8 8 8 8 9 8 8 8 7 7 6
1 1 3 3 2 2 0 2 2 2 3 4 5 5 3 4 6 8 7 6 5 3 3 4 8 9 10 10 10 9 10 10 10 9 9 9 9 8 8 7 7 7 7 7 6 6 6 5 5
2 3 4 2 3 2 1 2 4 5 4 4 5 4 2 3 6 6 6 5 4 3 3 4 7 9 9 9 9 9 9 9 9 9 8 8 7 7 6 7 6 6 5 5 5 4 4 4 4
2 3 1 1 2 1 1 2 4 4 4 3 4 4 2 2 4 6 5 5 4 3 3 3 4 6 7 8 8 7 7 8 8 8 7 7 6 6 5 5 5 4 4 4 4 3 3 3 3
2 3 2 1 1 1 1 2 3 4 3 4 4 6 4 5 6 6 6 5 4 3 3 2 3 4 4 5 6 6 6 6 7 6 6 6 5 5 4 3 3 3 3 3 2 2 2 2 3
3 3 0 2 3 2 2 3 2 3 5 3 3 3 5 10 9 7 5 4 3 3 2 2 2 2 3 3 4 4 5 5 4 4 4 4 3 3 2 1 1 2 2 2 2 2 2 2 2
3 2 4 3 4 4 3 3 3 4 4 3 5 6 10 10 9 8 6 5 4 3 2 2 2 2 2 2 3 2 2 2 2 2 2 2 2 1 1 0 1 1 1 1 2 1 1 0 0
3 3 2 1 3 4 4 2 3 6 2 4 8 11 11 9 8 7 6 5 5 4 3 3 2 2 2 1 2 2 2 2 2 2 2 2 1 0 1 1 2 2 1 1 1 1 1 1 1
2 3 2 1 1 3 4 4 3 3 4 6 10 13 11 10 9 8 7 6 4 4 3 3 3 2 2 1 1 1 1 1 1 1 2 2 1 1 1 1 1 1 1 1 1 1 1 1 0
0 2 1 1 1 3 5 4 4 1 3 8 10 11 11 10 8 6 5 5 4 4 4 3 4 3 2 1 1 1 1 1 1 1 2 2 1 1 0 1 1 1 1 0 1 1 1 1 1
1 1 1 1 2 2 5 3 4 2 6 9 10 9 9 9 8 6 5 5 5 5 5 4 4 4 3 2 2 1 1 1 1 2 3 3 3 1 1 1 1 1 2 1 1 1 1 1 1
1 3 4 2 2 2 5 3 1 4 8 8 8 8 7 6 6 7 7 6 6 5 4 4 5 4 4 3 3 2 2 2 1 2 3 3 4 3 2 1 1 2 2 2 1 1 0 1 1
3 3 2 2 1 2 5 2 2 7 9 8 7 7 7 6 6 6 6 5 5 5 4 5 5 5 4 3 2 1 1 1 1 2 2 3 4 4 2 1 2 2 1 1 1 0 0 1 1
4 1 1 2 1 2 2 2 2 7 8 7 7 7 6 5 5 5 6 6 6 5 5 4 4 4 4 2 1 0 0 0 1 1 2 3 3 3 2 2 1 1 1 0 1 1 1 0 1
2 1 1 2 2 2 1 1 1 6 7 7 6 6 6 6 7 5 5 6 6 5 5 4 3 3 3 2 1 1 1 1 0 1 2 2 3 3 3 1 1 1 1 0 0 1 1 1 0
4 2 3 4 2 2 1 1 2 4 5 5 5 6 6 6 4 3 4 5 5 4 4 4 4 3 3 2 1 1 0 1 1 1 2 2 2 2 2 1 1 1 1 1 1 1 1 1 1
4 2 2 2 1 3 2 1 2 3 6 7 7 7 7 5 3 3 3 4 5 5 5 4 4 3 3 2 2 2 1 0 0 1 2 2 1 2 2 2 1 1 1 1 1 1 1 0 1
4 5 4 2 1 3 2 3 2 1 2 4 4 5 5 7 6 5 5 5 5 5 6 5 4 4 3 3 2 2 2 2 1 1 2 2 1 0 1 1 1 1 1 1 1 1 2 1 0
4 5 5 3 2 1 1 2 5 3 3 4 5 5 6 6 6 5 5 5 6 6 6 5 5 4 4 4 3 3 2 2 2 1 1 2 1 0 1 1 1 1 1 1 1 1 1 2 1
5 2 3 3 3 1 2 1 6 1 4 6 7 7 8 7 7 7 7 6 5 5 5 5 5 4 4 4 4 3 3 2 1 0 1 1 2 1 1 1 1 1 1 1 1 1 2 2 2
5 6 6 5 4 1 3 2 5 4 6 5 7 7 7 7 7 6 5 4 4 4 4 4 4 4 3 4 4 4 4 3 2 1 1 1 1 1 1 1 1 1 1 2 2 2 2 2 2
5 6 3 3 3 5 2 3 7 6 6 7 7 9 8 7 7 6 5 6 5 5 6 5 5 4 4 4 4 4 4 4 3 3 2 1 1 1 2 1 1 1 2 2 1 1 1 2 2
5 7 7 5 5 4 1 5 6 4 2 3 4 6 7 7 7 7 6 7 7 7 6 6 6 5 4 4 4 3 3 3 3 3 2 2 2 2 2 1 1 1 1 1 1 1 1 1 2
6 4 5 6 3 1 4 6 6 1 0 1 3 5 6 7 7 7 6 6 6 7 7 7 7 5 4 4 3 3 3 3 3 2 2 2 2 2 1 1 1 1 1 1 1 1 1 1 1
5 8 6 5 5 3 4 4 4 4 3 2 3 5 5 5 6 6 6 6 5 5 5 5 6 6 5 4 4 3 3 3 3 2 2 2 2 2 1 1 1 1 1 1 1 1 1 1 1
4 5 5 5 5 6 3 6 5 7 6 5 5 5 6 6 6 6 6 5 5 4 4 5 5 5 4 4 3 2 2 3 2 2 2 2 2 2 2 2 1 1 2 1 2 2 1 1 0
5 6 7 5 4 4 4 6 5 4 5 5 4 3 4 4 4 5 5 5 5 4 4 4 4 4 4 3 3 3 2 2 2 2 2 2 2 1 1 1 1 1 1 1 2 2 1 1 1
Wind_Direction
158 150 152 144 47 41 335 314 348 24 39 37 63 82 90 78 95 131 60 125 125 133 142 147 145 141 137 134 133 133 133 134 133 132 132 133 136 135 135 136 136 136 134 131 129 128 129 131 132
148 156 175 44 66 39 322 320 48 78 134 134 79 73 73 67 67 102 109 124 121 128 132 145 144 140 140 137 135 134 134 136 135 134 134 135 137 137 136 136 138 137 138 137 135 134 133 135 137
161 187 114 63 60 170 276 316 106 91 116 102 76 63 76 91 102 133 146 129 111 111 125 149 147 147 143 139 136 135 134 136 136 137 138 140 141 139 138 138 136 140 142 142 140 138 138 140 140
164 155 46 58 15 269 204 204 127 120 63 49 82 67 59 44 119 131 125 121 115 111 123 149 150 151 147 140 136 136 135 136 139 141 143 144 143 142 144 140 140 141 144 145 145 145 144 145 145
159 77 44 22 339 337 106 158 128 94 76 60 79 80 41 18 91 115 122 125 125 119 118 134 139 142 142 138 135 135 136 138 140 142 144 146 146 145 147 145 144 142 143 144 146 148 151 154 159
55 56 57 11 342 354 32 90 97 88 91 88 87 88 49 69 108 123 123 125 123 120 112 123 139 138 139 139 138 137 136 137 137 136 138 142 144 145 146 147 148 148 149 153 157 161 162 169 179
91 73 79 306 336 359 108 100 107 109 101 111 116 101 104 128 133 124 114 109 105 101 96 96 118 131 140 143 145 144 140 140 138 135 133 140 145 149 150 153 154 156 158 165 176 184 180 185 197
137 94 39 324 239 299 115 97 104 110 103 110 113 133 170 176 140 114 97 91 93 88 85 89 98 108 122 142 148 149 147 143 141 140 141 143 145 154 160 166 165 172 178 179 188 207 217 223 226
135 75 258 227 195 196 115 98 81 78 96 88 99 140 153 136 127 116 105 99 105 119 98 109 114 109 116 128 146 145 147 143 142 141 140 130 118 135 163 179 181 189 199 197 216 234 238 239 236
122 139 230 219 183 163 128 118 134 98 88 79 81 94 119 131 137 142 149 156 163 173 172 155 153 139 122 134 117 113 125 116 119 120 119 111 112 137 165 287 274 278 248 245 255 260 251 291 222
158 201 243 241 172 147 131 126 120 127 148 177 156 146 143 146 153 162 168 170 181 183 177 170 172 153 141 115 109 103 101 98 96 101 107 112 115 55 16 352 337 334 343 355 355 15 22 24 93
169 260 236 273 141 138 147 142 120 159 201 167 155 151 153 161 172 179 181 183 178 174 187 179 166 162 165 138 128 133 115 124 132 139 128 118 97 43 360 326 318 337 359 12 11 27 0 352 30
180 300 324 186 79 125 123 127 132 151 120 127 138 149 163 175 184 189 188 183 179 189 196 189 168 168 164 149 204 173 186 189 174 168 164 158 158 206 273 283 305 300 275 270 330 345 340 338 329
243 355 353 32 85 120 125 110 105 150 127 132 148 164 176 183 185 183 185 188 190 196 198 187 168 169 168 183 203 198 205 201 184 197 196 189 185 196 214 261 278 261 239 225 251 297 310 312 312
36 36 19 36 83 121 107 60 167 157 140 148 164 173 181 190 188 193 192 191 195 195 190 178 173 167 177 192 206 201 198 187 199 221 220 211 204 198 202 225 259 258 235 219 233 300 350 328 333
29 46 18 318 62 117 117 230 226 152 151 164 174 179 184 196 199 201 195 192 192 187 182 183 182 169 182 192 211 215 196 181 216 226 234 236 226 210 199 218 259 260 226 198 195 237 28 351 3
28 38 307 309 312 109 121 239 225 158 162 177 183 188 189 195 208 212 201 191 188 183 178 176 172 170 180 183 181 196 105 199 233 230 237 243 238 219 200 214 258 240 187 184 226 139 147 61 355
239 229 249 258 264 101 103 276 198 167 173 185 190 196 195 203 215 208 197 189 180 174 169 169 174 170 154 137 99 52 30 346 305 243 240 233 232 212 188 197 239 211 153 128 152 123 107 128 76
174 183 255 262 227 123 156 264 255 178 179 186 195 201 201 213 218 195 185 181 170 166 164 175 175 166 138 129 138 133 266 319 326 291 261 250 232 199 179 186 189 164 165 199 182 139 98 71 81
178 201 246 319 41 128 121 318 298 185 199 202 198 202 205 205 202 188 184 179 180 177 175 176 176 164 160 161 152 143 151 179 213 325 342 302 239 206 190 176 181 166 147 126 128 139 116 58 79
210 195 199 194 29 55 100 337 306 254 206 203 200 198 192 198 198 194 191 195 189 188 187 187 176 168 166 147 109 88 73 49 33 354 341 335 344 159 186 169 159 177 173 194 210 172 163 179 79
235 213 178 162 106 339 66 262 279 245 225 214 212 197 197 199 193 194 194 196 202 199 186 175 169 171 169 152 144 145 159 188 222 237 288 333 360 339 216 174 165 172 171 193 223 173 178 165 192
199 135 128 123 127 52 10 159 286 272 240 238 221 208 204 198 193 197 200 200 199 191 185 181 173 177 172 164 165 166 191 207 206 218 297 315 333 325 285 194 171 179 189 199 202 174 176 176 185
137 81 61 55 74 332 252 177 273 228 223 230 220 211 202 196 195 197 192 178 185 181 182 179 177 191 181 173 178 185 197 196 190 219 252 290 319 328 328 180 184 200 207 212 208 205 193 193 189
108 102 46 9 5 254 247 200 249 248 225 212 206 201 197 187 186 189 184 183 187 189 191 184 184 193 184 181 191 199 200 193 202 217 219 225 279 304 298 278 217 224 225 220 204 191 209 205 197
168 143 160 187 215 267 273 236 255 268 254 201 185 181 177 178 188 192 193 193 194 196 196 187 190 197 187 191 201 203 199 199 208 208 201 211 229 245 262 247 231 223 218 220 191 193 225 206 209
141 157 157 136 152 199 272 282 301 290 51 149 164 164 180 188 193 194 190 192 196 196 194 189 188 194 194 200 198 200 195 197 204 203 201 224 241 246 248 248 243 238 213 201 183 209 240 201 219
129 141 107 126 154 220 283 271 251 263 252 221 180 181 191 189 193 189 186 190 194 197 192 177 180 191 192 192 198 201 199 201 198 184 199 221 239 240 229 255 244 237 232 216 190 220 232 195 242
115 105 111 117 148 158 228 269 233 215 212 207 208 195 189 185 186 185 182 179 175 172 168 175 179 180 180 188 191 188 190 188 182 193 216 224 235 231 226 231 227 233 237 225 200 217 208 190 249
145 152 146 149 192 169 174 262 293 214 200 193 202 193 176 174 175 168 162 151 150 157 161 170 177 179 188 183 172 182 186 168 179 208 225 216 223 237 232 224 216 233 230 215 198 206 189 187 219
Height
1489 1489 1490 1492 1493 1499 1500 1492 1486 1485 1486 1485 1485 1485 1488 1491 1495 1500 1497 1495 1495 1496 1497 1498 1499 1500 1501 1502 1503 1504 1505 1506 1507 1509 1511 1512 1514 1515 1516 1517 1518 1519 1520 1521 1522 1523 1524 1525 1526
1490 1490 1492 1493 1497 1508 1502 1490 1487 1486 1486 1486 1487 1488 1489 1492 1493 1495 1495 1496 1497 1497 1498 1499 1500 1501 1502 1503 1505 1506 1506 1507 1509 1511 1512 1514 1515 1516 1517 1519 1520 1521 1522 1523 1524 1524 1525 1526 1527
1490 1491 1493 1494 1500 1505 1499 1489 1487 1486 1487 1487 1488 1490 1492 1494 1495 1496 1497 1497 1498 1498 1499 1500 1501 1502 1503 1505 1506 1507 1508 1509 1511 1512 1514 1515 1516 1518 1519 1520 1521 1522 1523 1524 1525 1526 1527 1528 1528
1491 1493 1494 1498 1500 1495 1491 1488 1487 1487 1488 1488 1489 1492 1494 1496 1497 1498 1498 1499 1499 1500 1500 1501 1501 1503 1505 1506 1508 1509 1510 1511 1513 1514 1515 1517 1518 1519 1520 1521 1522 1523 1524 1525 1526 1527 1528 1529 1529
1492 1493 1497 1502 1498 1492 1488 1487 1487 1488 1489 1491 1491 1494 1497 1498 1498 1499 1500 1500 1501 1502 1502 1502 1502 1504 1506 1508 1509 1511 1512 1513 1515 1516 1517 1518 1519 1520 1521 1522 1523 1524 1525 1526 1527 1528 1529 1530 1530
1493 1494 1504 1508 1499 1492 1489 1488 1489 1490 1491 1493 1494 1496 1499 1500 1500 1501 1502 1502 1503 1504 1504 1505 1505 1506 1508 1510 1511 1512 1514 1515 1516 1518 1518 1519 1520 1521 1523 1523 1525 1525 1526 1527 1528 1529 1529 1530 1530
1495 1498 1504 1503 1500 1495 1491 1490 1491 1491 1492 1494 1495 1497 1500 1501 1502 1503 1504 1504 1505 1506 1507 1507 1508 1509 1511 1512 1513 1515 1516 1517 1518 1519 1519 1520 1521 1522 1523 1524 1525 1526 1527 1528 1528 1528 1529 1529 1530
1495 1498 1503 1503 1500 1496 1491 1491 1492 1492 1494 1496 1496 1498 1500 1501 1503 1504 1505 1506 1507 1508 1509 1510 1511 1512 1513 1514 1516 1517 1518 1519 1520 1520 1521 1522 1523 1524 1525 1525 1526 1527 1527 1528 1528 1528 1529 1529 1529
1495 1502 1506 1501 1498 1494 1491 1492 1494 1494 1495 1496 1497 1498 1499 1502 1504 1505 1507 1508 1509 1510 1511 1512 1513 1514 1515 1516 1517 1519 1520 1520 1521 1522 1523 1523 1524 1525 1526 1527 1527 1528 1528 1528 1528 1529 1529 1529 1528
1495 1503 1499 1492 1490 1490 1491 1492 1494 1495 1496 1497 1498 1500 1501 1503 1504 1506 1507 1509 1510 1511 1513 1514 1515 1516 1517 1518 1519 1520 1521 1522 1523 1523 1524 1525 1525 1526 1527 1528 1528 1529 1529 1529 1529 1529 1529 1528 1527
1494 1496 1491 1489 1489 1489 1491 1493 1494 1495 1498 1497 1498 1500 1502 1504 1506 1507 1508 1510 1511 1513 1514 1515 1517 1517 1518 1519 1520 1521 1522 1523 1524 1524 1525 1526 1527 1527 1528 1528 1529 1529 1530 1530 1530 1530 1529 1528 1527
1493 1491 1490 1489 1489 1490 1491 1493 1495 1496 1496 1497 1498 1500 1502 1504 1506 1508 1509 1511 1512 1514 1515 1517 1518 1519 1520 1520 1521 1522 1523 1524 1525 1526 1526 1527 1527 1528 1529 1529 1530 1530 1530 1531 1530 1530 1530 1529 1528
1492 1491 1490 1489 1489 1490 1491 1493 1495 1496 1497 1498 1500 1502 1504 1505 1507 1509 1511 1512 1514 1515 1516 1518 1519 1520 1521 1521 1522 1523 1524 1525 1526 1527 1527 1528 1528 1529 1530 1530 1530 1531 1531 1531 1531 1531 1531 1530 1529
1491 1491 1490 1489 1490 1491 1492 1494 1496 1497 1498 1500 1501 1503 1505 1506 1508 1510 1511 1513 1514 1515 1517 1518 1519 1520 1521 1522 1523 1524 1525 1526 1526 1527 1528 1528 1529 1529 1530 1531 1531 1531 1531 1531 1531 1531 1531 1531 1531
1491 1492 1492 1491 1491 1492 1494 1498 1497 1497 1499 1501 1502 1504 1506 1507 1509 1510 1511 1513 1515 1516 1517 1519 1520 1521 1522 1523 1524 1525 1525 1526 1527 1528 1528 1529 1529 1530 1530 1531 1531 1531 1532 1532 1532 1532 1531 1531 1531
1493 1498 1503 1495 1492 1493 1498 1505 1498 1498 1499 1501 1503 1504 1506 1507 1509 1510 1512 1513 1515 1516 1517 1519 1520 1521 1522 1523 1524 1525 1526 1527 1527 1528 1528 1529 1529 1530 1530 1530 1531 1531 1532 1532 1532 1532 1531 1531 1532
1502 1508 1507 1500 1493 1494 1498 1503 1498 1498 1499 1501 1503 1504 1506 1507 1508 1510 1511 1513 1514 1516 1517 1519 1520 1521 1523 1524 1525 1525 1526 1527 1527 1528 1528 1529 1529 1530 1530 1530 1531 1531 1531 1531 1531 1531 1531 1531 1531
1509 1508 1506 1504 1496 1496 1500 1501 1498 1498 1500 1501 1503 1504 1506 1506 1507 1509 1510 1512 1514 1515 1517 1519 1520 1521 1523 1524 1525 1525 1526 1526 1527 1528 1528 1528 1529 1529 1530 1530 1530 1531 1531 1531 1531 1531 1531 1531 1531
1499 1503 1506 1500 1494 1498 1501 1502 1499 1499 1500 1501 1502 1504 1505 1506 1507 1509 1510 1511 1513 1515 1516 1518 1519 1521 1522 1523 1524 1525 1525 1526 1526 1527 1527 1528 1528 1529 1529 1530 1530 1530 1530 1530 1530 1530 1530 1530 1530
1498 1504 1504 1499 1495 1498 1502 1503 1499 1498 1499 1500 1501 1502 1503 1505 1506 1508 1509 1511 1512 1514 1515 1517 1519 1520 1521 1523 1524 1525 1525 1525 1526 1526 1527 1527 1527 1528 1528 1529 1529 1529 1529 1529 1530 1530 1529 1529 1530
1499 1502 1502 1502 1498 1498 1503 1508 1503 1499 1499 1499 1500 1501 1502 1503 1504 1506 1508 1509 1511 1512 1514 1516 1518 1519 1521 1522 1523 1524 1524 1525 1525 1525 1526 1526 1526 1527 1527 1528 1528 1528 1528 1528 1529 1529 1529 1529 1529
1500 1491 1494 1498 1507 1514 1509 1524 1507 1501 1499 1498 1498 1499 1500 1501 1503 1505 1506 1508 1509 1511 1513 1515 1517 1518 1520 1522 1522 1523 1523 1523 1524 1524 1525 1525 1525 1526 1526 1526 1527 1527 1527 1527 1527 1528 1528 1528 1527
1490 1487 1492 1498 1508 1516 1514 1521 1514 1502 1502 1497 1495 1496 1497 1499 1501 1503 1504 1506 1508 1511 1513 1514 1516 1517 1519 1521 1522 1522 1522 1523 1523 1524 1524 1524 1524 1525 1525 1524 1525 1526 1526 1526 1526 1526 1526 1526 1526
1485 1491 1498 1506 1514 1527 1518 1522 1518 1504 1498 1493 1492 1493 1495 1497 1499 1501 1503 1505 1508 1510 1511 1513 1514 1516 1518 1519 1520 1521 1521 1522 1522 1522 1522 1523 1523 1523 1523 1523 1524 1524 1524 1524 1525 1525 1525 1525 1525
1487 1504 1523 1527 1534 1530 1516 1518 1512 1492 1488 1488 1488 1490 1492 1494 1497 1498 1501 1503 1506 1508 1510 1511 1513 1514 1516 1517 1518 1519 1520 1520 1520 1521 1521 1521 1521 1521 1521 1522 1522 1522 1522 1522 1523 1523 1523 1523 1523
1491 1499 1521 1533 1536 1529 1517 1518 1501 1486 1484 1485 1486 1488 1490 1492 1494 1496 1499 1501 1503 1506 1508 1509 1511 1512 1514 1516 1517 1517 1518 1518 1519 1519 1519 1519 1519 1520 1520 1520 1520 1520 1520 1520 1520 1520 1521 1521 1521
1490 1498 1499 1517 1523 1528 1521 1510 1495 1485 1484 1485 1485 1487 1488 1490 1493 1494 1497 1499 1501 1503 1505 1507 1508 1510 1512 1514 1515 1515 1516 1517 1517 1517 1518 1518 1518 1518 1518 1518 1518 1518 1518 1518 1518 1518 1518 1518 1518
1482 1492 1506 1517 1529 1532 1521 1514 1506 1490 1487 1485 1485 1486 1487 1489 1491 1493 1495 1497 1500 1502 1503 1505 1507 1508 1510 1512 1513 1513 1514 1515 1515 1515 1516 1516 1516 1516 1516 1515 1515 1515 1515 1516 1516 1515 1516 1516 1516
1488 1495 1503 1514 1516 1527 1529 1516 1487 1485 1483 1484 1484 1484 1486 1488 1489 1491 1493 1496 1498 1500 1501 1503 1504 1506 1508 1509 1510 1511 1512 1513 1513 1513 1513 1514 1514 1513 1513 1513 1513 1513 1513 1513 1513 1513 1513 1513 1513
1478 1487 1497 1508 1515 1519 1521 1512 1480 1479 1480 1481 1482 1483 1485 1486 1488 1490 1492 1494 1496 1498 1499 1501 1502 1504 1505 1507 1508 1509 1510 1510 1511 1511 1511 1511 1511 1511 1511 1510 1510 1510 1510 1510 1510 1510 1510 1510 1510